Theta_e
291 292 291 286 288 288 288 288 287 286 287 287 286 287 290 289 285 285 290 289 287 290 293 293 291 291 292 290 290 290 288 286 284 283 283 284 284 283 283 284 284 284 284 284 284 284 285 285 285 286 286 286 285 285 285 284 284 285 285 284 284 283 283 282 282 282 282 282 282 281 281 280 280 279 279 279 279 278 278 278 278 278 278 277 277 276 276
290 290 291 287 287 286 285 287 288 288 287 287 288 289 290 290 288 290 291 290 289 293 294 294 294 292 291 292 288 286 288 290 289 284 284 285 285 284 284 285 285 285 285 285 284 284 284 284 285 285 286 285 285 285 284 284 284 284 284 284 284 284 283 283 283 283 282 282 282 281 281 280 280 280 279 279 279 278 278 278 278 277 277 277 276 276 275
287 290 291 288 286 287 286 284 286 288 288 288 289 289 290 290 289 290 290 289 290 295 297 292 293 293 294 292 289 293 294 293 291 289 287 287 286 286 286 286 285 285 285 285 284 284 284 284 285 285 286 286 285 285 284 284 284 284 284 284 284 284 284 284 284 283 282 282 282 281 281 280 280 280 279 279 279 278 278 277 277 277 276 276 276 276 275
286 289 289 288 285 284 285 285 285 286 286 285 287 286 289 288 287 289 288 287 288 295 292 296 290 289 291 292 294 293 292 292 291 290 289 289 288 288 288 287 286 285 285 285 284 284 284 284 284 285 285 285 285 284 285 284 284 284 283 284 284 284 284 284 284 283 282 282 281 281 281 280 280 280 279 279 278 278 277 277 277 276 276 276 276 275 275
285 289 289 288 284 285 283 285 287 288 288 289 289 290 290 290 291 288 286 287 294 296 293 291 287 289 291 294 295 294 294 293 291 291 291 291 290 290 290 289 287 286 286 285 285 285 285 285 285 285 285 285 285 285 284 284 283 283 283 284 284 284 284 284 283 283 282 282 281 281 281 280 280 280 279 279 278 277 277 277 276 275 276 276 275 275 275
286 288 288 286 284 278 281 293 295 293 289 288 286 287 289 291 291 291 294 294 296 296 295 293 294 289 291 294 296 297 298 297 291 289 289 290 291 291 290 289 288 287 286 286 286 286 285 285 285 285 285 285 285 285 285 284 283 283 283 283 284 283 283 283 283 282 282 282 281 281 281 281 280 279 279 278 278 278 278 277 276 276 276 276 276 275 275
285 288 285 282 278 281 291 291 291 296 295 293 290 291 292 291 292 292 292 293 294 296 296 296 296 296 294 292 292 292 292 292 293 292 290 290 290 291 291 289 287 287 286 285 285 285 284 284 284 284 284 284 284 284 284 283 283 283 283 283 283 283 282 283 283 282 282 282 281 281 281 281 280 279 279 278 278 278 277 277 276 276 276 276 275 275 275
287 284 284 278 279 288 288 289 289 286 292 295 292 290 292 293 293 292 292 294 295 296 297 297 295 291 289 287 288 290 289 286 291 291 293 292 291 290 291 291 289 287 286 286 286 285 285 284 284 284 284 283 283 283 283 283 282 283 282 282 282 283 283 283 283 283 282 282 282 282 281 280 280 279 279 279 278 278 277 277 277 277 276 276 276 275 275
282 284 284 284 288 287 289 289 289 288 289 288 290 287 290 294 295 294 293 294 295 296 296 296 295 288 287 289 295 290 288 288 289 292 293 292 291 290 290 288 289 288 287 286 286 285 284 284 283 283 283 283 283 281 281 281 281 281 282 282 282 283 283 283 283 283 283 282 282 281 281 280 279 279 279 278 278 278 277 277 277 276 276 276 276 275 275
287 284 283 283 283 280 286 293 288 290 291 293 294 292 289 294 294 296 294 294 294 294 295 294 292 289 289 290 294 291 290 292 292 287 287 286 286 286 286 285 285 284 284 284 284 285 284 283 283 283 283 283 282 281 282 282 282 282 282 282 283 283 283 283 283 283 283 282 282 281 281 280 280 280 280 279 279 279 278 277 277 277 276 276 275 275 275
284 283 281 282 280 284 290 291 287 290 291 293 289 289 286 294 294 293 293 292 293 294 294 294 289 288 287 290 294 290 289 286 286 288 287 284 283 283 284 285 284 283 284 285 284 284 284 283 283 283 283 283 283 282 282 282 282 282 282 283 283 283 284 284 283 282 282 282 282 282 281 281 281 280 280 280 279 279 278 278 277 276 275 275 275 275 275
285 284 282 281 286 285 288 286 284 285 289 292 291 280 282 294 290 290 291 293 294 294 294 294 288 289 288 290 295 286 287 285 283 285 284 283 282 282 282 284 284 284 284 284 283 283 283 283 283 283 284 284 283 283 282 282 282 282 283 283 284 284 283 283 283 283 283 283 283 282 282 281 281 281 280 279 278 277 277 277 276 276 276 275 275 275 275
285 285 284 285 286 287 287 283 283 286 292 292 283 279 288 289 291 290 293 294 295 295 293 291 289 290 295 291 283 280 282 283 280 279 279 280 281 282 282 283 284 284 284 285 284 284 284 283 284 284 284 284 283 283 283 282 282 283 283 283 283 283 283 283 283 283 283 283 282 282 282 281 281 279 279 279 278 277 276 276 276 275 275 274 274 274 274
284 285 283 284 287 289 287 281 286 289 290 282 283 291 285 289 285 289 292 293 294 293 292 290 292 292 279 279 281 281 281 281 279 279 279 279 280 280 280 282 283 283 283 282 282 282 283 284 285 285 285 284 283 282 282 282 283 283 283 283 283 283 283 283 282 282 282 282 282 282 281 280 279 278 278 278 278 277 275 274 273 272 270 271 272 272 271
285 284 283 282 278 288 288 287 286 287 287 290 291 285 282 284 285 288 287 289 289 287 289 288 289 279 280 280 280 279 278 279 280 279 280 280 281 281 281 281 280 283 282 281 281 280 282 283 284 285 285 284 283 282 282 283 283 283 283 283 283 282 282 282 281 281 281 280 280 280 279 279 278 277 276 275 274 273 273 272 272 271 271 270 270 270 270
282 282 280 282 288 286 290 292 288 289 292 288 286 288 286 281 282 285 286 285 286 285 288 286 281 279 279 278 279 279 279 279 279 279 279 279 279 278 278 278 280 280 280 279 279 278 281 283 284 285 285 284 283 282 282 281 281 281 282 282 282 281 281 280 279 279 279 278 278 277 277 277 277 276 274 274 272 272 272 272 271 271 271 270 269 269 270
287 285 288 288 285 288 291 294 293 295 295 286 285 285 287 285 283 281 283 286 282 283 285 283 281 279 279 280 280 281 280 280 280 280 280 280 280 280 279 278 277 279 280 279 278 278 279 280 281 283 283 283 281 281 280 279 280 280 279 279 279 278 278 277 277 277 276 276 276 276 276 277 276 275 273 272 272 270 271 271 271 271 271 270 270 270 270
289 287 287 286 283 285 289 288 282 283 289 283 283 284 285 284 283 284 286 284 283 281 282 282 278 282 280 279 279 279 279 279 278 277 277 276 276 276 276 276 276 277 278 278 278 276 273 272 274 273 276 280 279 277 274 275 276 276 276 276 277 276 276 276 276 275 275 274 275 275 275 276 276 276 274 273 273 271 271 271 271 271 271 271 270 270 270
287 284 288 285 287 287 288 291 286 280 280 285 283 283 284 285 282 283 281 284 284 282 281 284 282 280 280 280 279 279 278 278 277 278 278 277 277 278 277 275 275 277 278 277 276 276 275 270 270 271 271 271 273 274 273 274 274 275 275 276 276 275 275 275 274 275 275 274 273 273 273 273 274 274 274 273 273 271 271 271 271 271 271 270 270 270 270
287 287 288 286 287 285 288 289 289 286 284 282 282 283 281 282 283 284 283 283 282 280 281 282 281 280 280 280 279 278 278 278 277 277 277 276 275 273 272 272 274 276 277 277 274 274 274 270 270 270 270 270 269 271 271 273 273 274 275 275 275 274 273 273 273 273 274 271 273 273 273 273 273 272 271 273 273 272 271 271 271 270 270 270 270 270 270
288 287 285 282 283 284 285 285 285 286 285 284 282 280 281 282 283 282 283 283 282 282 283 280 281 280 279 280 280 279 277 277 277 277 277 276 275 273 274 272 273 277 275 275 274 274 272 269 270 270 268 266 266 271 272 271 273 274 274 272 272 271 270 271 271 271 273 273 273 273 271 270 271 272 273 272 273 273 270 270 272 272 271 270 270 269 268
284 286 290 285 284 284 288 286 286 286 284 283 283 281 281 282 283 282 283 281 280 281 280 281 282 282 279 278 279 279 279 279 278 277 276 275 274 273 271 272 271 272 272 273 273 272 270 268 270 270 267 265 265 267 268 270 273 274 273 272 271 270 270 271 270 269 269 268 267 269 270 270 269 267 270 275 272 270 268 273 276 277 276 270 266 266 268
285 290 291 288 291 291 288 290 289 287 283 282 281 282 282 282 284 284 283 280 279 279 279 279 282 282 280 279 279 279 279 279 278 278 277 276 275 274 273 273 272 272 271 271 271 271 270 268 269 269 268 265 265 266 268 270 273 273 273 272 269 268 269 268 268 269 268 267 268 268 268 267 268 268 266 265 276 277 276 274 276 277 278 278 278 276 271
290 285 286 287 289 289 291 287 288 286 282 282 282 282 283 283 284 284 284 284 283 280 279 278 280 280 279 279 280 279 278 277 277 276 275 276 276 275 274 276 273 272 271 271 273 272 270 270 270 269 268 265 265 264 266 268 271 272 272 273 271 269 269 267 269 268 267 267 266 266 265 263 266 265 265 266 267 273 277 277 277 277 277 278 279 279 279
290 285 284 288 289 291 283 279 285 285 282 282 282 281 282 282 283 284 284 285 285 283 281 280 278 279 279 279 280 280 279 277 277 276 276 275 275 275 274 272 273 274 273 273 272 271 269 269 269 268 267 264 263 264 264 265 268 271 270 271 270 268 267 267 266 267 266 266 266 266 264 264 263 264 265 264 267 267 267 276 277 278 278 278 279 279 279
283 282 282 280 279 279 280 282 281 281 280 281 281 280 282 283 283 283 283 284 283 283 283 281 279 278 280 280 279 279 278 277 276 276 276 275 274 273 273 274 273 272 272 271 271 270 268 268 268 267 264 261 261 260 261 263 265 268 266 267 268 267 267 266 266 265 265 265 265 264 265 264 264 264 264 265 266 266 264 263 265 271 275 278 278 279 279
282 284 285 285 283 281 281 285 285 283 281 281 282 281 281 281 280 279 277 278 279 280 281 281 280 279 278 278 278 278 278 276 276 276 276 276 276 276 275 272 272 271 271 270 269 268 268 267 266 264 261 259 258 258 260 261 263 264 264 264 262 264 265 265 265 265 264 265 264 262 262 263 263 262 264 262 264 263 263 264 264 265 261 261 269 274 275
283 285 289 288 286 284 284 282 279 282 280 279 279 278 278 278 278 279 279 279 278 277 277 278 278 278 277 277 278 276 276 276 277 275 275 275 271 270 271 270 270 270 269 268 267 266 267 266 265 263 260 258 258 258 258 260 263 263 263 264 264 264 263 263 262 262 263 263 263 263 263 262 261 261 261 260 262 260 260 260 260 260 259 258 260 265 270
282 283 278 279 283 282 279 279 279 279 278 277 278 278 278 279 279 279 279 279 277 277 277 277 277 278 279 277 278 278 277 277 276 275 274 270 269 269 268 268 268 268 267 266 265 265 266 265 264 263 259 256 256 256 255 260 263 264 263 263 263 262 262 261 260 261 260 259 260 260 263 260 260 258 259 259 259 257 257 258 258 257 257 254 256 260 265
281 279 278 279 279 280 281 279 279 278 278 277 278 278 279 279 278 277 276 276 277 278 277 277 277 277 277 277 278 278 277 277 276 272 269 268 267 267 267 268 269 269 268 266 264 264 264 263 262 260 257 255 256 255 255 259 259 259 260 260 260 261 259 257 259 258 258 258 259 264 259 258 258 260 258 257 257 257 257 256 258 258 256 254 261 257 257
277 278 278 279 280 280 281 279 278 278 278 278 278 278 278 279 279 277 276 276 276 276 276 277 277 276 277 277 277 275 275 273 271 268 267 266 266 266 266 270 275 273 269 264 260 260 260 258 258 257 255 254 254 254 255 259 259 260 259 261 259 264 265 265 264 260 258 258 259 258 257 258 257 257 257 256 255 255 255 255 255 255 256 253 253 255 256
281 279 279 277 277 277 277 277 277 277 277 277 277 277 278 279 278 277 276 276 277 276 276 276 276 277 275 273 273 272 270 269 267 266 264 263 261 259 260 262 264 262 259 257 257 258 259 258 257 255 253 253 253 253 256 257 257 260 259 260 260 260 264 265 262 262 258 258 257 256 256 255 254 254 255 255 255 255 253 253 254 254 254 255 255 254 253
283 279 278 276 276 276 276 276 277 277 276 277 279 280 279 280 280 279 278 277 276 275 276 277 276 274 272 272 271 270 268 267 266 265 263 260 258 257 258 258 258 257 255 255 255 256 257 256 255 254 253 254 254 254 254 256 258 257 256 258 259 260 261 263 261 259 257 256 255 254 254 254 254 253 254 255 255 254 253 253 254 254 254 253 251 250 253
284 284 285 283 282 281 279 278 277 277 276 277 277 277 277 277 277 277 277 276 276 276 277 276 273 271 271 271 270 268 268 269 269 265 261 258 257 256 256 256 256 255 255 255 256 255 255 254 253 253 255 255 255 255 255 256 255 255 255 257 258 258 257 256 258 256 255 254 254 256 254 255 252 252 254 254 253 252 253 253 254 254 253 252 251 250 258
272 275 277 281 280 279 280 280 277 276 276 276 273 273 275 274 276 276 275 276 276 276 274 272 271 271 271 270 270 270 272 274 270 263 259 257 256 256 256 256 256 256 255 254 254 253 252 251 252 252 255 255 255 255 255 254 254 255 253 256 256 255 255 255 254 254 254 253 252 252 252 252 252 256 255 252 252 253 253 253 253 252 252 252 252 251 254
265 271 272 271 270 273 276 277 277 277 278 278 278 276 275 274 273 274 275 273 271 271 271 271 270 270 270 270 271 271 269 266 263 260 258 257 256 257 258 258 257 256 255 254 253 250 250 251 256 256 256 256 256 255 254 252 253 254 254 255 255 255 254 254 253 253 253 252 253 252 252 254 254 253 253 252 251 251 250 251 251 252 251 251 252 251 250
262 262 264 265 264 265 268 268 269 274 274 274 274 272 270 270 271 268 268 268 270 270 270 270 271 271 267 264 262 261 262 262 261 259 258 257 258 258 257 257 258 257 258 256 252 249 248 252 255 255 254 253 254 255 256 255 252 252 253 254 254 255 254 254 252 253 251 251 252 252 253 252 251 251 252 250 251 251 251 250 252 251 250 250 251 250 251
262 260 260 260 260 261 261 261 262 266 267 266 264 265 267 267 265 266 266 266 266 268 269 269 268 263 261 261 260 260 259 259 259 258 257 257 258 258 257 258 256 256 257 255 251 248 250 252 254 253 253 253 252 253 256 256 255 253 253 254 253 253 254 253 252 252 251 250 252 250 250 250 249 248 248 248 248 250 251 251 251 250 249 250 249 249 250
261 261 261 261 261 261 261 260 260 259 262 264 262 261 260 262 262 264 264 262 262 264 264 262 263 263 263 260 257 257 256 256 257 257 257 256 256 255 251 249 248 249 251 251 250 249 251 251 250 251 251 251 252 255 255 255 254 252 252 252 252 253 252 252 252 252 251 251 249 249 248 249 249 249 248 248 248 250 251 250 250 250 249 248 248 248 248
259 258 258 258 258 259 258 257 257 256 256 259 261 261 261 262 263 263 262 262 260 261 264 265 266 264 261 258 256 254 254 254 255 255 254 253 252 251 251 251 248 247 250 252 249 249 252 253 251 250 249 250 250 252 253 254 254 251 252 252 252 251 251 251 251 250 249 249 251 253 249 249 249 249 249 249 248 248 247 248 248 249 248 248 247 246 248
257 257 257 257 256 256 256 256 256 256 255 255 255 256 258 259 262 264 263 261 261 262 264 264 264 262 260 258 254 252 251 252 253 254 254 256 256 257 257 253 249 246 247 246 248 250 252 251 250 250 249 251 251 254 251 253 251 251 250 251 251 251 250 250 250 250 249 249 250 248 248 248 249 248 249 248 248 247 248 248 248 248 247 247 245 246 246
256 257 256 256 256 255 256 256 256 256 255 254 255 255 256 257 259 259 258 259 259 258 258 258 259 257 254 252 252 252 251 251 250 250 250 254 255 257 255 250 249 247 252 251 251 250 249 249 250 251 249 251 251 254 254 250 249 250 251 250 250 250 250 250 250 248 248 247 246 245 247 246 245 247 248 248 247 248 247 247 247 247 246 246 246 246 246
256 255 255 255 255 254 254 254 254 253 253 253 254 254 255 257 258 258 258 257 257 256 255 254 254 254 254 254 254 253 251 251 251 251 250 249 246 246 252 253 247 247 253 249 247 248 248 247 248 249 253 253 253 254 254 251 249 250 250 250 251 250 249 249 248 248 246 245 244 244 244 244 244 245 247 246 245 246 247 246 245 246 246 244 245 245 246
255 255 255 255 255 255 255 255 255 254 253 253 254 255 255 255 256 256 256 255 255 255 255 255 255 255 255 255 255 254 252 252 253 253 254 253 253 252 250 249 248 251 253 250 249 248 248 248 249 253 255 255 254 254 253 252 251 249 248 249 249 249 249 248 247 247 247 248 247 245 245 248 245 243 244 245 245 243 245 245 245 244 246 246 244 246 246
254 254 254 254 254 254 253 253 252 251 252 253 253 253 254 254 255 256 256 256 256 255 256 256 255 255 255 254 253 253 252 251 251 253 257 255 254 251 250 252 251 251 252 252 250 249 249 251 253 255 255 255 254 253 252 251 252 252 251 249 248 248 248 248 248 247 248 247 247 246 247 246 245 246 245 246 248 247 247 247 247 246 247 247 246 246 247
254 254 254 253 252 252 252 252 253 254 254 254 253 252 252 252 253 253 254 254 253 254 254 254 253 253 252 252 252 253 253 252 250 249 250 253 256 254 252 252 252 253 253 252 250 250 251 255 255 255 255 254 253 251 251 252 251 251 250 250 247 248 247 248 248 247 247 247 247 246 246 245 245 245 244 245 246 247 248 250 249 248 247 248 247 247 248
254 254 254 254 254 254 255 255 256 255 254 253 251 250 251 251 251 251 251 252 252 252 252 252 252 253 254 254 255 255 254 253 253 252 251 253 254 254 254 254 254 253 252 251 251 250 251 253 254 255 254 253 251 246 246 247 249 248 249 246 246 247 247 246 246 245 246 247 249 249 250 248 246 245 247 249 248 248 248 248 248 248 248 248 248 249 249
254 254 254 255 254 255 254 253 252 251 251 250 250 251 252 252 252 252 252 252 252 252 252 251 251 251 252 252 251 251 253 256 254 253 252 250 252 252 252 253 253 253 254 254 253 254 255 255 255 255 254 253 247 244 249 249 250 249 245 246 245 244 244 244 245 245 246 247 249 247 246 245 246 246 247 247 248 248 248 247 249 248 248 248 249 249 247
254 254 255 255 254 254 253 253 252 252 252 253 253 253 254 254 254 254 254 253 253 252 252 252 252 252 252 252 252 253 251 250 255 254 252 251 253 253 254 254 254 254 253 251 250 250 254 255 255 255 254 251 245 245 246 246 248 248 248 246 246 247 246 245 245 244 244 246 247 247 247 247 247 245 247 247 248 248 248 248 249 248 248 248 249 249 248
254 253 253 253 253 253 253 253 253 253 254 254 254 255 255 255 253 253 253 253 253 253 253 253 253 253 253 253 253 253 253 253 253 252 252 253 253 254 253 253 253 253 252 250 249 249 253 254 255 254 253 251 250 250 249 248 247 248 248 249 251 248 248 250 252 251 248 248 248 248 248 248 247 248 248 247 247 248 248 249 247 250 251 251 249 249 248
253 253 253 253 253 253 254 254 254 254 254 254 255 255 255 254 254 254 255 255 254 253 253 253 253 253 253 254 253 253 254 254 254 254 254 255 255 254 254 255 255 254 254 254 253 252 251 251 250 252 252 252 250 250 250 250 249 249 251 250 249 249 250 251 250 249 248 249 248 248 248 248 247 247 247 248 249 249 249 248 249 248 248 249 249 249 249
254 254 254 254 253 253 253 254 254 254 254 255 255 255 255 254 254 254 254 254 255 254 254 253 252 253 254 253 253 253 254 254 255 255 255 255 255 255 254 254 254 254 253 253 252 250 251 250 252 253 252 251 249 248 251 252 251 249 249 251 250 250 250 250 249 249 248 249 249 248 249 248 247 248 249 248 249 249 249 249 249 249 249 249 249 249 249
Wind_Speed
17 19 17 11 7 11 14 17 17 17 17 14 17 20 24 15 14 21 23 11 15 25 21 12 12 11 11 11 12 11 7 3 3 3 4 5 6 5 7 11 11 11 13 13 13 12 12 10 13 13 12 12 11 10 10 11 11 13 12 12 12 12 11 12 12 11 10 9 9 10 10 10 10 10 9 8 8 7 7 7 6 6 6 6 6 6 5
16 17 18 10 15 7 5 12 17 18 19 21 24 26 27 24 17 17 20 19 17 19 21 12 15 10 9 9 4 1 3 7 8 5 5 7 7 9 11 12 13 13 13 11 12 12 12 14 14 13 13 13 13 12 12 11 11 10 11 13 13 13 13 12 10 10 11 10 11 10 11 11 11 10 10 9 9 9 8 7 6 6 7 7 7 7 7
12 18 17 8 12 11 11 6 8 14 19 23 27 26 23 19 17 17 21 21 22 24 19 6 6 8 9 7 5 8 11 10 8 9 9 8 9 11 11 9 11 11 10 10 10 12 15 15 17 15 14 12 11 11 12 12 12 10 10 12 13 13 13 12 11 11 11 11 11 12 12 10 9 11 11 10 9 8 8 7 8 8 8 9 8 7 8
12 14 16 14 5 4 7 7 9 15 20 22 21 18 15 13 19 23 21 18 21 26 3 10 6 5 8 10 11 11 10 10 10 9 11 11 11 11 12 12 9 8 12 12 14 16 16 15 14 13 13 12 11 13 11 10 9 9 10 11 12 12 12 11 11 12 11 11 11 12 11 11 11 10 10 10 10 10 9 9 8 6 8 8 8 7 7
12 18 16 12 5 3 8 15 20 26 24 17 11 15 17 22 22 16 15 22 24 24 3 2 3 6 10 12 14 12 13 12 10 13 12 11 11 11 11 11 11 12 14 15 16 14 12 14 15 14 12 12 14 13 12 11 10 11 12 12 12 11 11 11 12 11 11 12 12 11 10 10 10 10 11 10 10 11 12 9 7 9 10 9 9 8 8
9 17 15 4 6 14 16 19 27 23 20 17 15 18 22 22 14 14 19 20 21 18 14 13 13 10 11 14 15 14 13 12 9 9 9 10 11 11 10 9 10 10 9 10 12 14 14 13 13 11 12 13 10 9 10 10 12 11 12 11 11 11 10 11 11 10 10 10 10 10 9 10 10 11 11 12 11 9 8 8 9 9 8 9 8 9 9
10 11 1 4 17 16 17 4 1 11 17 17 23 25 21 17 16 16 17 20 22 26 17 12 15 12 12 8 9 10 10 8 7 7 10 13 13 13 12 9 9 11 11 9 9 10 10 9 9 10 10 9 9 9 10 11 11 12 11 11 10 10 11 10 10 10 11 11 10 10 11 11 11 11 11 9 10 9 9 10 11 12 11 11 10 10 9
2 3 8 12 13 5 5 3 5 1 5 15 15 17 20 19 18 20 23 27 28 24 23 18 11 6 6 5 9 13 8 5 7 10 13 12 10 11 12 13 11 9 10 14 14 13 8 10 10 11 11 10 11 11 10 12 11 11 11 11 11 10 11 11 12 12 13 12 12 12 11 11 11 12 11 11 11 9 8 7 6 5 6 7 10 10 10
11 9 14 18 4 9 6 5 7 12 11 9 15 16 19 22 22 23 24 27 26 23 21 19 10 1 2 8 18 7 8 11 13 15 13 9 9 10 9 7 9 9 9 9 8 6 8 9 10 10 9 10 9 9 10 9 10 10 11 11 12 12 11 10 10 10 11 11 11 10 11 11 11 11 11 10 9 7 8 8 9 10 10 11 9 9 10
11 12 12 7 8 15 15 21 1 3 6 7 9 10 15 12 15 22 22 23 22 19 19 18 7 3 5 14 23 6 13 16 13 7 7 5 5 5 5 3 3 4 4 4 6 9 9 9 9 8 10 11 10 10 11 10 11 11 11 13 12 11 11 11 11 11 11 10 11 10 10 11 11 9 8 7 9 8 10 11 11 12 9 7 7 8 10
7 11 13 11 11 13 11 13 5 6 8 11 6 7 14 15 15 13 14 13 16 19 19 20 5 5 9 17 19 4 10 5 6 10 8 4 3 3 4 5 5 5 6 7 8 8 9 9 9 10 11 12 12 12 11 11 12 12 13 12 11 12 12 10 9 9 9 9 10 11 11 11 11 11 11 11 9 8 8 7 8 6 7 8 8 7 9
11 10 12 11 6 9 8 4 3 4 9 13 9 6 10 19 4 9 11 15 21 22 20 15 8 13 13 15 16 2 8 5 4 5 5 3 2 1 1 1 4 5 6 8 6 9 10 10 10 12 12 12 11 11 11 10 12 13 11 10 9 7 7 8 9 10 10 11 11 12 12 11 9 10 8 7 8 8 8 7 7 6 7 7 8 8 7
15 17 11 5 6 4 6 4 3 6 9 12 7 15 15 4 7 9 16 20 22 20 16 9 10 14 18 9 2 2 4 6 4 3 2 2 2 5 5 5 6 7 6 8 9 9 7 9 10 11 11 10 10 9 10 10 10 8 7 8 8 9 9 9 9 10 9 11 12 10 10 10 9 7 7 8 8 9 9 7 7 6 7 7 8 8 6
13 12 14 12 7 5 5 1 13 10 8 6 15 8 1 9 5 11 15 16 17 13 12 10 14 10 1 4 2 3 2 4 3 3 3 4 4 3 3 4 5 6 6 6 6 6 6 9 10 10 10 10 8 9 8 9 8 8 8 8 9 8 9 9 9 9 9 8 9 9 7 8 8 8 7 8 8 8 6 6 7 7 6 6 7 6 4
5 4 10 6 11 5 9 14 2 3 8 10 6 2 2 3 5 9 7 10 8 5 8 8 7 3 2 3 4 3 3 5 5 5 4 5 5 6 5 5 4 7 8 7 7 6 6 7 8 8 10 10 8 8 9 7 6 7 8 8 8 9 8 9 9 9 9 10 9 7 8 9 9 9 7 7 6 7 7 7 8 8 8 6 6 6 6
10 12 11 9 5 4 14 17 10 11 15 4 5 8 5 3 5 8 7 8 8 7 6 7 4 4 5 1 4 5 3 4 4 4 4 4 4 5 4 4 5 7 9 7 8 5 5 6 7 8 10 10 8 9 7 6 7 7 8 8 8 8 8 8 8 8 8 8 7 7 8 8 8 8 7 7 7 7 7 8 7 8 7 6 6 7 8
10 8 9 3 4 12 14 11 9 12 13 3 5 2 4 7 6 4 4 7 5 6 7 5 8 5 5 6 7 8 9 6 6 7 6 6 6 6 7 6 5 5 11 11 9 8 5 5 5 6 6 10 9 8 6 7 8 8 8 8 8 8 8 8 8 7 6 7 7 7 7 9 8 8 7 7 7 5 7 7 7 8 7 7 8 8 7
3 3 1 1 1 4 11 6 3 2 5 3 3 4 3 5 4 8 8 6 6 5 6 9 4 6 8 8 5 4 6 7 4 4 5 5 4 5 6 6 6 7 9 10 11 10 5 4 5 4 5 9 10 7 5 6 7 8 9 9 8 8 7 7 7 7 7 6 6 6 7 7 8 8 10 9 8 7 7 7 7 8 8 7 8 8 9
8 9 7 10 10 6 10 14 7 3 3 4 3 3 4 2 5 5 2 7 9 10 9 9 10 7 9 9 6 6 5 7 6 6 7 5 5 7 8 6 7 8 9 10 9 9 8 3 5 5 5 4 5 7 7 7 7 8 8 8 7 7 7 6 6 7 8 7 6 6 6 5 6 7 7 7 7 8 8 8 8 8 7 8 8 8 9
12 10 7 4 5 3 7 9 10 7 5 4 4 3 2 2 3 4 4 4 4 5 7 7 10 9 8 10 10 8 6 7 7 6 7 7 6 4 4 4 5 7 9 9 8 7 8 4 4 5 5 5 5 6 5 6 7 7 7 7 8 7 7 7 7 7 7 9 9 7 7 7 7 6 6 7 9 10 11 10 9 9 8 8 9 10 10
7 3 3 4 2 4 9 9 7 5 4 6 6 4 4 4 5 3 3 2 5 9 9 7 9 11 7 7 11 11 7 6 6 6 6 5 6 6 7 3 4 7 7 8 7 7 6 4 5 5 5 3 3 5 6 6 7 8 7 6 6 6 6 6 6 5 6 7 7 7 6 6 5 6 9 9 9 7 4 6 8 9 9 8 8 7 6
6 12 15 10 5 7 10 10 12 12 9 6 6 4 5 6 7 7 9 3 2 2 4 9 12 13 10 6 7 10 10 9 8 7 7 6 7 5 4 4 5 6 6 9 9 8 5 4 5 6 5 4 3 3 5 5 7 8 8 7 6 6 6 6 6 6 5 6 5 6 7 7 6 1 2 4 5 5 5 4 9 9 7 7 5 6 7
13 17 13 7 13 10 5 10 12 11 8 8 10 11 10 9 7 10 11 8 4 4 4 4 7 11 12 11 7 8 7 8 7 8 11 11 8 7 6 9 6 8 6 7 8 8 6 5 6 6 5 4 4 3 4 4 6 7 8 7 6 6 6 6 7 7 6 6 6 6 6 7 6 6 2 0 2 6 7 6 7 9 12 12 11 11 9
10 4 6 11 9 11 9 4 8 11 11 12 12 8 6 10 10 10 9 13 15 8 5 4 1 6 9 9 10 10 6 6 8 7 5 5 7 8 6 7 10 10 8 8 9 9 6 6 7 6 6 4 4 3 2 3 5 7 7 8 7 6 6 6 6 6 6 6 6 6 5 5 6 6 5 6 5 3 6 8 10 11 12 13 13 13 15
10 4 5 8 11 11 3 2 4 9 11 12 12 11 11 10 8 9 9 8 9 16 11 8 5 6 10 9 8 12 12 8 7 9 8 8 7 8 7 7 8 9 8 7 7 7 7 7 7 6 7 4 4 3 3 2 4 6 5 6 7 6 6 6 6 6 6 6 6 6 6 6 5 5 7 6 7 6 3 5 9 11 12 12 13 13 13
2 1 2 3 3 1 1 3 2 5 7 7 5 4 5 7 9 7 5 5 7 7 12 11 9 7 9 12 7 7 8 9 9 8 9 8 7 6 7 8 7 5 7 7 7 7 7 8 8 7 7 4 5 5 3 2 4 5 5 5 6 7 7 6 7 5 6 6 6 6 6 6 6 6 6 6 6 5 4 5 3 4 6 10 12 12 13
3 6 7 3 1 2 3 8 7 9 10 8 9 8 7 8 9 5 4 4 4 3 5 9 10 10 6 5 7 6 12 9 6 6 7 8 8 7 6 5 7 8 9 8 7 7 9 9 9 8 7 4 5 4 2 2 5 5 5 6 5 6 8 7 5 6 5 5 5 5 5 5 5 5 5 4 4 5 5 5 5 4 2 3 6 7 6
4 8 8 10 8 9 8 7 4 5 6 5 8 10 7 8 8 8 8 7 6 5 6 5 11 11 10 7 9 8 7 9 10 7 7 6 4 5 6 8 9 9 9 9 8 7 8 8 9 9 6 4 5 4 2 2 6 6 6 6 6 5 4 5 5 5 5 5 5 5 5 5 3 3 2 3 4 2 1 1 2 2 3 2 2 6 9
4 3 4 2 1 3 6 4 4 8 7 4 5 7 10 9 7 8 7 7 8 9 8 4 2 7 13 10 8 11 10 9 8 8 7 6 5 6 7 9 9 8 9 9 7 7 8 8 8 9 5 3 4 4 2 2 5 6 5 6 6 5 4 4 4 5 4 3 4 3 4 3 5 3 3 3 3 2 2 1 1 1 1 3 5 6 4
1 5 4 2 4 7 8 6 7 6 7 7 10 7 7 11 9 5 6 5 5 8 6 6 8 7 6 9 8 12 13 12 10 8 7 6 6 6 8 9 10 8 9 8 7 6 8 8 8 8 3 4 5 3 3 5 5 5 6 5 5 5 5 4 5 5 5 5 4 5 5 4 4 4 3 2 1 1 2 1 0 0 2 2 2 1 2
3 4 4 3 4 3 4 5 4 4 5 4 6 9 4 4 9 9 7 5 4 6 6 7 7 9 7 8 7 6 7 9 9 9 8 7 6 4 2 3 9 9 8 7 5 5 8 8 7 5 2 3 3 3 4 6 6 6 6 6 5 6 7 6 5 5 6 5 5 5 4 4 3 4 4 3 1 1 1 0 0 0 1 0 1 1 3
4 6 8 8 7 6 4 2 3 4 4 4 6 7 8 9 8 8 7 7 8 8 9 7 8 9 7 7 8 10 10 9 9 9 8 7 7 6 6 7 10 11 9 7 5 5 6 7 8 3 2 2 3 3 4 5 5 7 6 5 6 5 6 8 6 5 5 6 4 5 6 4 4 3 3 2 1 1 1 1 0 0 0 1 1 2 2
5 2 1 1 0 0 2 3 5 5 6 7 8 7 7 5 6 9 10 9 7 5 7 8 7 8 8 9 10 11 11 10 9 9 8 8 7 7 7 8 9 10 9 7 6 6 6 8 4 2 3 3 3 4 4 4 6 6 6 6 6 5 5 5 6 6 6 6 6 4 4 4 4 4 3 3 2 2 1 1 0 0 0 1 1 3 2
13 11 10 11 13 11 10 8 6 4 3 1 0 3 4 3 4 5 7 6 6 9 8 8 8 9 9 10 11 12 12 12 9 7 6 7 7 7 7 8 9 11 9 7 8 6 6 5 4 3 3 4 5 5 5 5 6 6 5 6 6 6 6 5 6 6 6 6 6 5 5 6 4 3 4 4 2 2 2 1 1 1 0 0 1 1 3
5 3 2 1 2 2 1 5 8 7 7 7 3 4 4 4 5 6 6 9 9 7 6 9 9 9 9 10 10 10 9 10 10 10 8 7 8 8 8 10 11 11 11 9 8 7 5 3 1 3 4 5 6 5 5 6 5 6 5 6 7 7 6 6 6 5 6 5 4 6 4 5 4 3 4 4 3 4 2 3 1 2 1 0 0 1 2
10 5 5 4 3 2 1 4 6 9 10 10 9 8 7 6 6 7 8 6 5 8 9 9 9 9 8 9 9 7 7 8 10 10 9 8 8 6 7 10 11 11 9 8 6 4 4 3 5 4 3 4 5 5 5 4 5 6 5 7 7 7 7 7 7 6 6 6 6 5 4 5 4 5 5 4 3 3 3 1 1 1 1 1 1 1 2
9 7 6 4 4 4 4 4 2 1 1 2 4 7 7 5 6 4 5 6 6 8 9 10 10 10 9 6 7 8 8 8 9 9 9 8 6 7 8 8 7 8 8 7 1 2 2 2 4 5 5 5 5 5 4 5 6 6 6 7 6 7 7 7 6 7 6 4 5 5 6 6 5 4 5 3 3 2 2 2 3 2 1 1 1 1 1
8 8 7 6 6 5 6 4 4 4 6 7 6 4 3 6 6 7 7 6 6 7 7 7 9 10 10 8 9 9 9 8 9 10 9 8 7 10 7 7 5 4 6 5 2 1 1 3 5 5 5 5 5 5 5 6 5 6 6 6 6 6 7 7 7 7 7 5 6 4 5 5 6 4 3 3 2 2 3 2 2 1 1 1 1 1 1
11 9 7 6 4 6 5 6 7 8 7 7 5 5 4 4 5 7 9 7 4 6 10 11 11 11 10 14 14 10 9 7 8 10 10 8 6 10 8 4 2 2 3 3 4 2 2 4 6 5 5 5 5 5 6 6 6 6 6 6 6 6 6 7 7 7 6 6 5 4 5 4 3 3 2 2 2 2 4 3 1 3 1 0 0 0 0
8 9 9 9 8 7 11 12 13 12 9 6 6 6 3 3 4 7 8 8 4 4 8 11 12 11 10 12 15 12 7 5 6 8 10 10 12 12 8 6 3 2 0 3 3 3 4 6 5 6 5 3 4 6 5 6 6 6 6 6 6 7 6 6 6 7 4 5 5 5 4 4 2 3 3 2 2 2 2 1 1 1 0 0 0 0 1
8 8 7 7 6 7 8 9 11 8 11 11 10 7 5 3 1 6 8 9 6 5 6 6 11 10 9 11 13 11 7 6 6 7 7 9 9 7 8 7 1 0 0 2 3 4 6 5 4 6 5 5 3 5 6 6 6 5 6 6 6 6 6 6 5 4 5 4 5 4 3 2 2 2 3 1 1 1 1 0 0 0 0 0 1 1 1
8 7 6 6 7 7 7 6 6 11 10 7 9 10 8 6 5 8 7 7 9 8 10 9 9 14 14 14 12 10 9 7 7 8 6 5 4 7 9 4 3 2 2 5 4 5 5 4 5 5 5 6 5 6 5 7 5 5 6 6 6 5 5 5 5 4 4 5 4 4 4 3 3 1 1 1 1 0 0 0 0 0 0 1 1 2 2
9 8 7 6 6 7 6 6 8 7 9 8 7 8 8 7 7 6 6 7 10 12 13 12 13 13 13 12 13 12 9 7 8 8 9 7 4 2 4 8 5 2 6 6 4 5 6 4 5 4 4 5 5 6 5 5 4 5 5 6 6 6 5 5 4 4 4 6 4 3 3 2 2 1 1 1 1 1 1 1 1 2 1 2 4 3 3
8 7 6 5 6 6 5 5 6 6 8 8 7 8 10 10 9 9 10 11 13 12 13 12 11 11 10 10 11 10 7 6 6 5 8 8 9 10 7 6 5 5 7 6 5 6 6 4 4 5 7 7 6 5 5 4 4 4 5 5 5 5 5 4 4 4 4 3 3 3 3 3 1 2 2 1 1 1 1 2 3 3 3 4 3 5 4
7 7 7 7 7 7 6 6 6 7 5 4 7 11 12 12 11 7 7 10 11 11 10 10 10 9 9 9 10 7 5 4 4 1 7 7 8 3 1 4 5 4 6 6 6 5 5 4 5 6 5 6 6 5 4 4 4 4 4 5 5 4 4 3 3 2 2 1 1 1 4 2 2 2 2 2 3 2 3 3 4 4 5 4 4 4 5
6 6 6 7 8 7 5 4 3 3 5 7 10 11 10 9 9 10 11 12 14 10 8 9 10 10 9 8 8 8 8 6 6 6 5 2 4 6 5 4 5 5 7 7 4 5 4 6 6 6 6 5 5 6 4 3 4 4 4 5 3 5 2 2 1 2 1 1 1 2 2 3 2 3 3 4 4 3 3 5 5 3 4 5 4 5 5
5 6 7 7 6 4 3 3 4 5 6 10 11 8 7 8 8 7 9 10 11 11 10 10 10 9 7 7 6 6 7 7 8 8 8 6 9 7 6 6 7 7 6 5 5 4 4 5 5 6 5 5 5 4 4 4 4 3 3 3 2 2 2 1 1 1 1 1 3 3 4 3 3 3 4 3 3 4 3 3 4 4 4 5 4 6 5
6 7 7 8 9 9 8 8 8 9 10 10 7 6 5 6 8 9 8 8 9 10 9 8 7 7 7 7 6 6 5 4 12 7 5 8 6 6 5 5 5 7 7 5 5 4 5 5 6 6 5 4 5 3 3 3 2 3 3 1 1 2 1 1 1 2 2 1 1 2 2 2 2 3 3 4 5 4 4 4 5 4 4 4 5 5 4
7 8 9 9 10 11 10 8 8 8 7 6 6 5 6 6 9 10 9 9 11 9 9 9 10 8 7 7 7 5 5 4 3 7 4 5 6 6 6 6 8 7 6 5 4 3 4 5 4 5 5 4 3 3 2 2 2 2 1 1 1 1 1 2 3 3 3 3 3 3 4 4 4 4 5 4 5 4 5 5 5 5 5 5 5 6 5
7 7 7 7 7 8 7 6 7 6 5 4 5 6 5 5 8 7 7 7 7 7 7 7 7 6 6 6 6 7 8 9 12 11 8 6 5 5 6 5 5 5 4 5 3 2 2 3 3 3 3 2 2 1 1 2 1 1 1 2 2 2 2 4 3 4 3 5 3 4 5 4 5 5 6 4 4 4 5 5 5 6 7 6 6 5 4
6 7 7 6 7 8 10 9 8 6 6 7 6 6 7 8 8 6 7 6 6 7 7 7 7 7 6 6 6 6 8 8 7 6 6 5 4 5 5 4 4 4 3 3 3 2 1 1 0 1 1 1 1 1 1 1 2 2 2 2 2 1 2 3 4 3 3 4 4 5 5 5 4 4 5 4 5 5 5 6 6 5 5 5 6 5 5
9 8 6 8 7 8 8 8 8 8 7 7 6 6 7 7 6 6 7 7 6 7 5 6 8 6 5 5 6 5 6 7 5 5 4 4 4 4 4 5 4 4 4 3 2 1 1 0 1 1 2 1 1 1 2 3 3 2 2 3 2 2 3 4 5 4 4 4 6 5 6 5 4 4 5 5 5 6 5 5 5 5 5 5 5 5 5
Wind_Direction
227 229 235 165 198 190 193 200 193 192 197 189 197 218 229 210 205 227 245 211 224 251 251 225 219 214 222 230 233 231 224 238 231 190 199 209 219 210 207 214 207 206 206 205 201 201 203 195 197 197 195 194 195 198 193 187 182 184 174 173 176 178 178 183 186 176 165 164 166 165 166 163 165 166 164 160 157 158 171 175 173 166 156 157 158 167 175
229 237 236 180 196 215 210 202 200 198 189 196 203 216 221 219 220 237 250 254 238 245 255 216 220 200 211 225 217 156 210 238 232 205 220 224 224 214 219 218 214 211 210 203 202 197 197 200 198 197 198 196 194 193 193 187 186 182 168 179 177 180 183 186 178 169 167 167 168 167 167 172 171 163 161 160 161 165 174 171 161 160 156 158 170 177 178
235 239 243 208 205 205 220 224 213 203 201 205 208 215 224 224 237 241 250 255 261 253 244 228 221 201 215 250 254 245 241 243 241 228 225 229 230 228 231 231 221 214 208 205 198 198 203 200 200 198 198 193 185 192 195 190 185 179 175 177 182 182 185 182 174 168 169 173 168 172 175 168 163 164 164 164 164 164 165 168 169 167 167 171 176 179 184
239 247 245 236 199 222 234 228 208 216 211 213 214 218 216 204 217 227 238 252 254 260 124 207 185 182 200 218 236 237 242 236 232 229 230 228 232 233 231 230 220 208 207 203 201 204 204 201 198 197 194 189 184 194 188 185 180 169 178 183 186 187 184 176 173 173 175 170 171 175 170 170 167 166 162 162 167 169 167 169 176 166 172 181 180 183 184
234 247 242 239 151 206 247 235 226 217 217 213 213 221 218 215 211 217 223 234 239 250 171 140 233 195 213 219 231 243 245 236 218 224 227 228 233 233 232 228 216 211 208 206 204 204 199 200 199 198 182 179 194 185 179 182 165 175 185 186 186 186 181 178 178 175 172 172 175 173 172 167 166 165 167 168 168 171 179 176 159 172 186 180 187 184 187
235 244 248 159 158 215 227 226 226 218 217 202 206 217 220 225 204 219 223 237 251 259 247 230 238 209 223 219 227 224 233 242 231 232 231 234 233 237 239 233 222 218 210 208 206 203 202 199 194 184 183 188 184 175 171 164 174 178 181 188 187 184 177 180 175 172 169 170 173 171 167 167 166 170 172 180 177 172 163 160 176 182 184 188 185 189 192
228 245 88 186 222 229 231 272 343 218 218 206 211 225 225 223 220 236 252 255 254 249 251 242 241 235 234 241 245 250 241 234 240 230 230 229 229 232 236 235 223 213 205 202 201 202 199 182 172 168 179 173 155 160 163 167 173 175 180 177 182 179 180 177 171 168 168 170 171 171 175 173 170 172 174 172 175 175 172 179 182 187 187 188 194 193 196
236 208 206 237 232 233 347 276 227 347 211 216 212 237 240 231 219 214 231 239 245 251 251 248 241 233 249 291 260 244 240 214 222 235 235 232 222 230 230 225 224 200 194 198 197 197 171 166 174 175 175 163 162 168 163 170 172 175 174 179 183 181 183 181 178 175 173 174 175 175 172 171 173 176 177 178 177 174 176 182 186 183 200 197 197 196 196
226 211 220 236 307 329 270 267 231 185 186 171 189 225 239 227 220 215 222 234 240 247 254 253 250 204 349 286 269 210 191 222 227 224 235 225 222 226 241 216 224 206 203 197 187 157 162 168 164 173 160 158 156 149 159 166 164 170 173 182 187 187 186 180 180 176 175 174 174 170 172 174 178 177 176 178 176 167 178 186 188 195 199 201 198 193 194
207 224 240 237 234 241 245 235 242 119 185 181 193 203 255 250 224 222 220 229 239 244 252 254 240 90 284 274 266 215 189 215 221 234 247 245 230 231 232 223 219 177 165 141 144 155 159 165 165 152 151 154 152 158 167 166 169 176 182 191 186 181 181 180 180 176 175 173 172 172 171 178 179 181 177 179 183 176 185 188 198 203 200 199 200 198 196
182 218 231 227 226 238 230 256 159 187 159 155 123 174 242 249 231 219 211 225 241 240 240 247 148 170 233 251 260 201 196 206 195 211 224 222 237 236 205 180 169 162 157 152 149 143 150 155 157 152 153 155 159 167 170 171 174 180 190 188 181 185 184 174 166 162 164 166 170 172 178 183 180 182 186 188 184 180 195 196 204 185 189 199 203 204 206
206 213 227 233 217 242 243 214 220 178 126 106 113 192 241 251 115 168 163 200 228 236 233 228 153 201 235 247 258 126 185 178 174 182 183 156 112 80 73 99 151 146 134 119 131 148 160 163 152 153 153 158 165 168 173 170 180 191 187 181 178 166 155 159 164 167 170 173 177 179 183 182 182 188 178 167 171 179 188 193 193 188 192 200 207 213 206
222 224 242 262 268 272 241 193 165 145 134 117 154 215 236 156 169 170 170 199 215 227 229 192 197 216 220 239 347 95 110 114 86 43 64 120 146 150 151 145 136 133 142 146 154 159 154 146 148 149 153 155 167 167 166 176 188 177 162 157 159 160 161 162 167 172 173 176 179 183 182 180 174 168 167 175 172 178 186 188 188 191 190 199 211 219 207
223 226 232 237 264 237 163 15 149 163 114 199 218 228 155 152 173 192 191 197 217 218 212 189 211 226 75 134 104 73 72 105 110 89 100 91 68 43 75 114 121 116 111 107 107 104 125 141 142 148 148 154 156 157 164 181 179 163 155 153 154 156 160 166 167 169 172 175 177 174 165 154 159 175 180 175 178 176 172 175 185 196 196 201 210 224 222
241 224 239 224 235 247 125 116 81 298 198 230 186 140 249 183 191 175 217 213 228 168 215 214 208 105 90 116 134 121 108 126 136 140 132 130 130 129 116 99 99 120 115 109 108 113 121 130 138 144 146 149 153 154 173 178 146 140 144 148 153 156 158 160 167 170 172 169 170 163 164 168 168 173 164 163 164 161 164 174 186 197 202 199 205 223 234
207 205 216 216 218 116 157 143 178 205 214 183 181 141 200 212 170 190 193 225 210 200 198 185 169 158 131 122 113 123 112 117 124 110 111 100 103 87 71 98 120 111 106 105 101 93 101 120 136 144 148 145 149 160 165 134 135 136 143 149 147 151 159 165 164 167 169 167 161 159 161 160 164 159 164 167 165 172 172 177 186 199 207 198 208 223 231
200 207 226 203 180 171 198 191 203 209 208 149 184 163 174 169 227 182 181 215 206 197 179 162 158 150 207 168 176 150 169 151 151 148 150 148 140 132 122 118 114 120 127 125 114 96 82 100 114 132 139 142 148 151 154 142 144 144 141 141 144 153 160 162 164 161 153 157 161 162 161 159 162 165 163 159 167 177 172 184 189 199 207 196 210 222 229
258 308 212 173 287 226 218 241 187 238 217 204 152 165 184 247 199 177 186 189 173 172 161 143 198 181 163 152 156 137 139 149 128 123 111 99 105 107 109 102 108 119 113 110 113 108 78 75 95 100 122 142 149 165 147 138 137 135 138 139 150 158 156 156 154 146 147 151 157 162 162 169 173 172 169 173 177 175 179 193 193 199 207 199 213 219 230
180 237 202 202 220 218 213 214 215 225 262 226 168 187 215 220 159 192 226 175 172 171 170 170 167 160 163 152 151 147 141 141 152 140 135 127 132 136 121 141 135 123 119 111 112 115 107 71 95 93 99 82 122 135 140 141 136 139 141 146 146 148 151 142 139 148 152 160 158 158 163 164 167 164 165 170 173 175 185 192 198 203 206 205 213 219 231
202 225 218 255 244 239 241 225 211 225 228 219 210 209 181 187 184 165 183 134 141 147 171 171 151 160 165 153 152 159 158 154 148 149 137 135 103 72 100 110 102 95 101 112 112 107 106 92 86 89 84 98 118 123 129 133 133 132 136 145 150 153 149 147 153 158 159 160 159 164 173 169 168 168 173 175 181 190 190 192 192 206 202 210 213 218 228
228 300 294 243 325 277 253 246 255 251 206 187 204 187 153 156 154 124 133 192 175 178 175 156 145 146 181 174 160 151 153 147 149 147 141 118 115 117 109 93 97 117 124 115 120 116 116 113 100 93 90 82 109 126 133 134 135 131 135 133 132 136 140 142 151 159 155 162 168 165 170 178 189 180 177 186 196 211 216 185 197 195 199 214 220 222 219
228 219 226 165 170 239 235 219 216 216 213 198 181 145 148 164 162 165 159 150 120 174 172 165 159 157 163 169 158 155 158 161 150 141 134 127 119 108 90 94 93 94 108 125 127 122 128 126 117 112 104 91 83 112 127 140 134 131 134 128 127 139 142 143 145 145 145 150 153 157 163 172 168 196 354 181 201 191 212 191 202 218 195 210 201 191 210
226 229 233 160 215 243 226 202 203 195 184 170 175 193 186 188 184 169 150 138 137 160 184 199 171 154 159 165 157 143 154 162 158 150 146 141 138 133 138 114 108 111 119 120 118 121 136 133 122 121 110 104 95 95 126 134 129 131 131 127 125 134 140 147 155 151 146 146 153 151 155 161 166 174 204 337 230 212 198 196 204 213 223 228 216 199 196
247 251 194 180 194 217 246 221 180 185 178 177 192 199 192 174 175 178 178 167 159 172 170 164 203 163 148 154 156 150 140 139 138 138 127 125 135 139 141 135 132 126 129 135 133 139 143 134 128 119 103 69 67 50 66 110 128 132 138 137 144 155 149 148 146 149 148 145 145 141 140 141 157 166 176 204 281 272 220 213 217 220 224 229 232 234 227
239 221 182 197 198 214 232 277 231 181 179 174 177 183 181 176 187 184 187 191 173 153 159 166 137 145 149 151 159 155 152 154 150 143 140 134 139 140 138 129 137 137 144 131 123 125 127 126 114 108 95 54 27 39 31 71 117 123 131 129 134 141 143 141 139 138 142 144 153 152 155 153 160 162 170 187 204 245 271 241 230 233 235 235 240 244 248
329 85 97 66 52 104 169 79 41 164 175 174 152 168 172 173 167 168 197 186 166 166 151 147 143 152 157 149 154 136 124 140 146 139 135 138 133 125 141 149 144 119 113 110 111 115 110 110 107 97 82 29 5 346 352 40 95 114 117 120 136 147 152 151 141 148 151 156 155 169 164 166 166 170 190 184 203 196 219 273 310 292 265 254 253 254 258
184 165 119 65 335 253 223 173 206 191 186 183 170 160 151 138 137 128 107 90 103 119 148 154 145 139 125 125 129 137 143 133 124 138 140 141 147 150 142 121 121 120 115 110 105 108 115 109 100 90 74 15 338 323 338 66 97 96 100 106 104 114 129 133 144 153 155 152 153 150 153 163 168 177 190 192 181 184 198 212 232 240 286 323 327 318 298
180 191 174 179 202 207 213 232 284 165 152 153 139 133 137 128 126 126 119 112 98 95 92 125 134 130 127 143 133 112 112 139 146 143 139 138 118 108 118 120 115 113 108 105 109 114 109 107 102 93 64 6 350 344 343 88 101 106 107 108 111 118 122 122 122 133 151 150 155 158 167 171 163 160 136 143 161 184 165 188 209 259 303 309 296 324 324
211 207 349 342 292 107 94 105 109 121 114 91 106 118 133 133 140 139 147 145 142 131 130 132 122 144 143 152 147 143 149 144 143 150 137 119 118 117 114 110 105 101 102 104 101 108 108 103 103 90 59 3 354 2 353 93 117 121 120 122 115 121 122 119 119 110 108 103 108 111 111 108 116 108 111 119 115 112 127 164 229 305 257 314 342 332 351
352 8 8 27 127 139 122 117 139 138 130 141 135 144 155 142 135 140 131 140 151 148 151 139 136 136 143 141 156 153 158 160 146 124 115 114 111 118 121 121 104 92 90 83 90 98 99 96 92 86 40 342 345 356 41 89 86 91 94 96 106 114 117 113 105 105 101 101 108 101 97 103 103 112 113 111 112 118 137 152 182 202 305 319 337 298 288
8 14 35 37 32 30 85 116 113 127 133 139 143 139 143 135 139 141 149 151 144 132 149 159 151 139 149 147 133 106 99 107 111 112 104 99 98 89 106 155 138 146 133 124 104 95 99 94 84 75 352 338 338 13 73 90 98 95 91 90 94 106 111 112 108 112 119 115 108 104 100 97 101 109 111 110 95 98 95 100 83 45 31 342 301 281 274
89 17 19 13 10 37 39 48 106 130 147 137 131 150 162 150 154 167 160 170 176 159 150 141 151 152 135 117 113 109 108 107 104 101 95 81 63 38 39 57 76 90 97 96 84 88 97 94 77 34 338 349 16 34 80 104 101 98 107 110 102 95 97 98 89 94 94 101 101 98 104 107 91 91 98 94 126 125 121 121 202 151 295 261 291 281 298
132 110 342 318 2 354 197 210 165 172 167 170 191 181 181 185 160 162 167 158 134 147 161 154 140 125 125 123 117 116 111 106 99 98 96 82 62 54 56 68 84 91 87 74 74 66 76 85 86 11 17 27 44 52 63 84 98 108 109 101 102 97 92 87 100 94 83 81 85 97 96 90 111 104 107 111 112 113 111 117 119 83 351 287 272 282 277
178 190 201 193 183 192 198 210 212 181 176 166 78 132 164 159 141 141 141 146 147 154 163 148 131 129 127 125 125 126 127 120 121 121 111 101 92 80 76 78 85 85 79 74 66 60 43 47 40 33 35 47 52 52 61 75 90 95 103 100 99 94 86 86 88 94 94 85 91 86 92 97 87 101 104 107 106 109 104 109 98 109 104 6 292 279 303
334 336 357 212 282 322 235 177 172 181 173 172 183 164 160 143 145 153 152 151 161 156 123 115 126 130 127 129 133 143 148 141 136 129 128 120 115 114 110 104 95 86 74 55 49 23 22 356 15 65 70 65 62 59 66 80 93 95 91 94 93 93 95 86 79 81 97 106 99 92 82 85 89 91 102 103 101 113 109 118 132 133 126 80 311 19 10
354 358 15 21 10 350 143 166 179 180 180 186 179 167 160 156 143 145 152 148 113 114 123 127 127 121 122 132 135 136 117 109 120 122 123 127 129 130 116 107 106 99 94 74 32 13 344 16 52 64 76 79 74 65 79 87 86 94 98 97 95 93 88 87 90 85 83 90 84 88 100 101 104 96 97 96 94 95 103 102 104 96 106 103 83 53 21
11 356 344 359 6 20 54 52 32 129 147 119 131 137 136 132 133 107 96 109 118 123 131 131 128 126 118 97 92 82 87 111 123 126 126 126 127 115 110 103 97 114 114 101 3 12 348 45 66 66 76 78 77 76 75 77 87 87 93 92 99 97 99 89 81 86 78 79 96 100 95 89 78 74 73 87 93 94 101 107 93 88 89 93 82 87 71
355 2 357 359 356 37 44 24 354 53 91 74 40 57 101 128 123 119 110 102 110 122 120 113 113 111 109 102 85 89 98 104 115 119 122 122 128 112 93 98 102 101 103 138 161 79 53 73 68 75 79 74 75 70 73 71 85 89 90 94 97 99 95 99 95 91 92 85 87 88 92 97 103 88 80 80 93 102 98 93 90 110 95 82 102 116 124
3 1 4 1 18 29 40 31 34 33 39 92 89 62 36 77 105 110 104 97 87 109 111 114 120 110 110 101 87 76 78 102 116 120 118 107 90 92 90 80 64 32 103 103 117 130 93 86 88 83 77 75 72 72 79 72 70 86 89 95 93 96 101 102 105 102 99 102 96 93 93 94 96 107 92 96 92 77 80 97 109 112 112 153 146 245 242
358 358 348 344 11 28 29 33 25 23 18 38 76 81 39 80 104 109 110 101 73 98 125 134 127 122 118 113 103 95 102 97 107 110 112 110 104 100 97 67 33 352 6 119 113 118 97 92 84 83 77 73 74 71 71 70 75 86 87 92 97 95 97 103 102 102 101 98 98 95 93 95 101 102 111 98 92 102 107 106 96 114 146 216 256 255 308
352 350 350 358 360 14 27 45 43 33 20 22 25 11 12 42 87 118 114 115 106 98 97 112 116 110 116 118 112 108 105 90 88 101 122 119 111 121 115 126 200 358 55 116 110 98 93 90 88 84 67 67 75 74 75 65 78 85 91 93 95 98 99 97 99 110 118 114 112 118 128 126 107 102 100 106 115 124 126 129 158 176 183 253 288 307 280
342 347 351 7 9 15 19 27 35 40 30 23 17 7 19 23 60 68 47 95 95 82 79 65 83 112 113 102 108 105 95 87 83 61 49 70 109 134 115 140 172 156 124 89 82 82 79 77 77 85 82 73 75 79 73 71 83 87 88 88 93 97 102 102 105 107 103 103 115 125 120 122 128 127 131 131 133 151 177 160 260 236 268 237 235 246 240
345 349 355 4 14 15 12 19 37 56 55 29 14 16 15 34 64 51 66 85 88 93 89 94 99 103 111 115 111 103 99 102 96 100 82 65 61 3 115 139 143 144 108 104 95 89 83 88 87 87 87 88 90 90 78 84 84 92 94 96 97 96 97 104 110 111 114 114 118 121 129 133 136 147 157 176 200 202 187 222 225 252 245 233 240 242 242
339 349 359 8 17 23 21 26 31 27 45 34 20 25 29 38 38 45 44 57 81 79 95 105 104 104 105 110 110 108 111 109 111 115 105 88 64 41 46 94 122 110 102 99 95 93 89 86 93 98 95 94 95 86 86 95 95 91 94 95 98 100 103 100 103 113 121 129 142 162 161 153 159 173 168 194 214 234 224 232 238 237 243 242 236 240 245
356 1 7 18 20 31 31 31 33 49 62 49 39 37 27 30 37 54 55 65 85 88 86 82 94 97 94 83 75 81 81 72 53 65 107 109 100 79 73 84 95 95 94 93 87 87 93 98 105 102 100 99 87 84 87 88 88 89 91 93 95 100 105 115 124 131 135 138 146 161 160 188 184 188 194 205 199 213 227 227 238 228 226 240 239 239 245
5 16 24 31 36 39 39 53 46 58 65 72 65 44 29 30 37 37 28 44 70 62 61 67 75 76 87 96 98 97 91 78 64 37 29 5 120 135 127 108 94 93 91 90 80 91 112 112 104 103 99 83 73 78 77 80 83 92 91 101 110 110 118 128 122 134 136 161 174 183 199 200 192 213 203 209 223 225 242 235 242 236 224 234 242 239 244
23 37 41 52 56 52 25 33 48 53 50 49 51 48 25 29 43 54 55 59 70 72 67 62 65 65 64 63 81 107 111 103 66 39 21 65 81 87 101 91 89 90 92 94 101 109 111 105 102 102 88 82 88 85 89 94 96 102 108 114 112 121 131 146 157 173 184 191 200 207 207 195 203 215 222 229 230 231 236 239 249 249 243 239 249 249 250
32 41 47 50 54 52 54 47 50 46 46 52 62 71 51 48 60 66 62 63 67 70 65 59 56 50 46 47 40 30 11 72 94 51 36 22 59 83 81 82 96 108 107 111 108 119 120 113 110 110 103 92 92 108 116 118 120 113 117 125 129 158 174 163 202 207 208 219 216 220 235 258 252 233 231 228 239 237 233 233 243 254 247 236 242 242 245
35 48 53 55 55 53 52 52 51 51 51 50 54 64 68 68 72 64 54 52 58 60 62 62 61 58 57 48 44 35 66 338 72 128 119 47 85 79 87 99 101 100 99 102 94 78 99 118 115 120 118 117 112 118 112 114 111 127 145 170 187 200 192 202 223 207 197 220 225 221 230 227 231 220 234 237 237 239 236 239 243 238 246 245 245 244 241
46 40 44 39 44 40 39 44 51 43 36 32 38 41 31 61 70 54 52 51 64 72 67 59 56 52 46 41 43 48 39 66 74 73 86 83 85 88 90 92 102 103 98 103 103 78 52 96 115 129 126 130 130 137 146 159 164 176 189 205 205 207 213 215 222 209 209 222 229 230 232 230 231 229 231 230 239 239 239 240 244 246 248 246 247 247 246
40 47 48 41 51 54 51 53 52 46 45 47 47 47 47 56 64 62 55 60 71 63 67 66 55 46 38 50 49 41 55 67 71 74 79 79 75 80 81 84 85 86 86 82 95 99 81 87 81 109 130 150 173 172 184 191 196 205 209 207 213 206 223 228 224 230 234 226 230 233 234 235 234 234 239 239 242 248 247 244 247 245 243 242 243 246 247
63 58 53 57 56 59 55 48 42 41 40 39 39 46 52 58 63 62 50 25 47 67 59 78 68 35 31 35 39 40 42 50 59 68 68 70 65 63 67 69 67 63 58 58 60 58 63 162 174 148 191 183 195 204 222 217 216 217 228 228 234 239 235 233 236 240 242 239 235 239 242 237 230 239 249 244 243 244 250 246 246 247 246 245 242 243 248